[[{"header":{"parameterUnit":"m.s-1","parameterCategory":1,"la1":30.2992,"la2":30.254,"lo1":-89.0895,"lo2":-89.0443,"dy":0.0025,"dx":0.0025,"nx":19,"ny":19,"refTime":"2026-03-16T03:00:00:Z","depth":0,"parameterNumber":2,"parameterNumberName":"U-component_of_WINDS"},"data":[0,0,0,5.0557,5.0561,5.0697,5.0697,5.0887,5.0889,0,0,0,0,0,0,0,0,0,0,0,5.0525,5.0527,5.0557,5.0561,5.0697,5.0697,5.0887,5.0889,0,0,0,0,0,0,0,0,0,0,0,5.0525,5.0526,5.0528,5.0561,5.0697,5.0697,5.0886,5.0778,0,0,0,0,0,0,0,0,0,0,5.0644,5.0621,5.0526,5.0528,5.0562,5.0697,5.0697,5.0773,5.0785,5.0832,0,5.0875,0,5.0885,5.0903,5.0903,0,0,0,5.0555,5.0611,5.0641,5.0529,5.0564,5.0696,5.0634,5.078,5.0793,5.0848,5.0877,5.0884,5.0888,5.0904,5.0905,5.1195,5.1196,0,0,5.0547,5.0554,5.0631,5.065,5.0629,5.0629,5.0638,5.0788,5.082,5.0878,5.0888,5.0891,5.0905,5.0907,5.1193,5.1195,0,0,0,5.053,5.0549,5.0575,5.0643,5.0666,5.0634,5.0643,5.0813,5.0821,5.089,5.0893,5.0906,5.0909,5.1191,5.1194,5.1282,0,0,0,5.0525,5.0539,5.0572,5.0577,5.0664,5.0741,5.0666,5.0811,5.0827,5.0893,5.0907,5.0911,5.1189,5.1193,5.1276,5.1322,0,0,0,5.0514,5.0537,5.056,5.0577,5.0636,5.0738,5.0755,5.0814,5.083,5.0903,5.0911,5.1188,5.1192,5.127,5.1313,5.1402,0,0,0,5.0504,5.0635,5.0562,5.071,5.0635,5.0792,5.0753,5.087,5.0943,5.0907,5.119,5.1193,5.1268,5.1307,5.1396,5.1478,5.1513,0,0,5.0674,5.0656,5.0743,5.0681,5.0853,5.077,5.0956,5.1016,5.1017,5.1136,5.1143,5.1278,5.1312,5.1401,5.1704,5.1732,0,0,0,5.0799,5.0862,5.0906,5.0977,5.1027,5.1075,5.1106,5.1129,5.123,5.1079,5.1333,5.1354,5.1405,5.1444,5.1468,5.1512,5.1212,5.1211,5.1211,5.1049,5.1044,5.1189,5.1201,5.1271,5.1304,5.136,5.1397,5.137,5.1431,5.1466,5.1651,5.1697,5.1714,5.1761,5.1509,5.1509,5.1509,5.1509,5.1299,5.1387,5.1352,5.1479,5.1474,5.1581,5.162,5.1598,5.1698,5.1623,5.1668,5.1587,5.1745,5.1785,5.1516,5.1515,5.1514,5.1513,5.1513,5.1462,5.1504,5.153,5.1634,5.1716,5.1724,5.1823,5.1814,5.1807,5.1851,5.1889,5.1888,5.1886,5.187,5.1871,5.1871,5.1872,5.1872,5.1873,5.1621,5.1648,5.1732,5.1799,5.1845,5.1905,5.1942,5.1987,5.2036,5.2022,5.2022,5.1991,5.1761,5.1704,5.1883,5.1881,5.188,5.1879,5.1878,5.1876,5.1818,5.1948,5.1994,5.2074,5.2156,5.2145,5.2239,5.2276,5.2326,5.2286,5.2117,5.2098,5.2079,5.2032,5.2285,5.2285,5.2285,5.2285,5.2015,5.2005,5.2137,5.2213,5.2285,5.2289,5.2439,5.2471,5.2494,5.2517,5.248,5.2416,5.2397,5.239,5.2364,5.232,5.2641,5.2641,5.2642,5.2173,5.217,5.2298,5.232,5.2382,5.2437,5.2578,5.2668,5.2682,5.2656,5.2536,5.2521,5.2418,5.2384,5.2354,5.2315,5.2233,0,0]},{"header":{"parameterUnit":"m.s-1","parameterCategory":1,"la1":30.2992,"la2":30.254,"lo1":-89.0895,"lo2":-89.0443,"dy":0.0025,"dx":0.0025,"nx":19,"ny":19,"refTime":"2026-03-16T03:00:00:Z","depth":0,"parameterNumber":3,"parameterNumberName":"V-component_of_WINDS"},"data":[0,0,0,-9.6114,-9.6122,-9.6549,-9.655,-9.709,-9.7095,0,0,0,0,0,0,0,0,0,0,0,-9.5985,-9.5989,-9.6113,-9.6123,-9.6548,-9.655,-9.7089,-9.7095,0,0,0,0,0,0,0,0,0,0,0,-9.5983,-9.5988,-9.5992,-9.6125,-9.6548,-9.6551,-9.7088,-9.6768,0,0,0,0,0,0,0,0,0,0,-9.6356,-9.6235,-9.5987,-9.5992,-9.6127,-9.6548,-9.6551,-9.6753,-9.6788,-9.6896,0,-9.6991,0,-9.7052,-9.7131,-9.7133,0,0,0,-9.6125,-9.6206,-9.6323,-9.5993,-9.6131,-9.6547,-9.6357,-9.6773,-9.6813,-9.6942,-9.6999,-9.7019,-9.7061,-9.7134,-9.7137,-9.7754,-9.7757,0,0,-9.6101,-9.606,-9.6295,-9.6348,-9.6283,-9.6343,-9.637,-9.6797,-9.6855,-9.7001,-9.7031,-9.7069,-9.7138,-9.7142,-9.7752,-9.7755,0,0,0,-9.6033,-9.6044,-9.615,-9.6326,-9.6403,-9.6356,-9.6387,-9.6836,-9.6875,-9.7037,-9.7076,-9.7141,-9.7148,-9.7749,-9.7753,-9.7854,0,0,0,-9.6019,-9.6004,-9.614,-9.6119,-9.6395,-9.6625,-9.6416,-9.6845,-9.6894,-9.7073,-9.7141,-9.7153,-9.7746,-9.7751,-9.7845,-9.7909,0,0,0,-9.5958,-9.5997,-9.6058,-9.6116,-9.6298,-9.6619,-9.6682,-9.6857,-9.6918,-9.7133,-9.7154,-9.7744,-9.775,-9.7837,-9.7895,-9.8061,0,0,0,-9.5881,-9.6139,-9.6058,-9.6362,-9.6294,-9.6679,-9.668,-9.6968,-9.7165,-9.7144,-9.7746,-9.7753,-9.7834,-9.7887,-9.8052,-9.8194,-9.825,0,0,-9.6184,-9.6174,-9.6357,-9.6297,-9.6686,-9.6617,-9.7022,-9.7239,-9.7296,-9.7598,-9.7614,-9.7848,-9.7894,-9.8059,-9.8571,-9.8614,0,0,0,-9.6439,-9.6569,-9.6681,-9.6868,-9.7041,-9.7196,-9.7357,-9.7438,-9.7697,-9.7443,-9.7954,-9.7982,-9.8081,-9.8151,-9.8188,-9.8276,-9.7783,-9.7782,-9.7782,-9.6808,-9.687,-9.7176,-9.7289,-9.747,-9.7635,-9.7787,-9.7924,-9.7931,-9.8051,-9.8141,-9.8444,-9.8525,-9.8553,-9.8644,-9.822,-9.8221,-9.8221,-9.8221,-9.7259,-9.7454,-9.7461,-9.776,-9.7823,-9.8075,-9.8245,-9.8242,-9.8486,-9.838,-9.847,-9.835,-9.8598,-9.8681,-9.823,-9.8228,-9.8227,-9.8226,-9.8226,-9.7509,-9.7613,-9.7709,-9.7987,-9.8194,-9.8299,-9.8535,-9.8583,-9.863,-9.8719,-9.8821,-9.882,-9.8826,-9.8764,-9.8766,-9.8767,-9.8768,-9.8768,-9.8769,-9.773,-9.7835,-9.8028,-9.8237,-9.8364,-9.8538,-9.8708,-9.8835,-9.8988,-9.9005,-9.9006,-9.9002,-9.8611,-9.8512,-9.8786,-9.8783,-9.8781,-9.8779,-9.8778,-9.8166,-9.8076,-9.8374,-9.8502,-9.8753,-9.8957,-9.9016,-9.9271,-9.9383,-9.9498,-9.9476,-9.9179,-9.9172,-9.9143,-9.9062,-9.9461,-9.9461,-9.9461,-9.9461,-9.8378,-9.838,-9.8697,-9.8899,-9.9102,-9.9188,-9.9524,-9.9659,-9.9785,-9.9858,-9.9807,-9.9704,-9.9672,-9.9684,-9.9643,-9.9568,-10.0088,-10.0088,-10.0089,-9.865,-9.8675,-9.8951,-9.9074,-9.9275,-9.9445,-9.9764,-9.9996,-10.0119,-10.0115,-9.9917,-9.9891,-9.9724,-9.9666,-9.9657,-9.9592,-9.9456,0,0]}]]